Погода Пильво

Погода Пильво : погода сейчас, прогноз погоды и архив. Всё, что Вы хотите узнать о погоде Пильво!

Хотите узнать прогноз погоды Пильво? Тогда Вам сюда: Погода Пильво

Поиск расширенной информации на нашем сайте:

Другие новости

Новости СМИ2

Главная страница сайта

Новости сайта

03.07.2017

Напоминаем, что на нашем специализированном сайте Метеоцентр.Азия вы можете получить высокодетализированные автоматические прогнозы погоды по пунктам России, СНГ и мира в авиационном формате (включающие направление и скорость ветра, видимость, явления погоды, количество и форму облачности, нижнюю и верхнюю границу облачности).

Рекомендуем: Портал о семье и отношениях http://moiasemia.ru

Погода Пильво - сегодня

Время (UTC), дата Ветер
(°,м/с) 
Видим.   Явления Облачность Т
(°С)
Тd
(°С)
f(%) Тe
(°С)
Pmin
(гПа)
dP
(гПа)
Po
(мм)
O2
(г/м3)
Тmin Tmax R s Состояние
почвы
18 18.01.18 120 (ЮВ) 2-4{08}  н/о    н/о 
-15.5 -17.9 82 -18  1015.8  1.5  761  327           
21 18.01.18 320 (СЗ) 3-6{11}  10 км  слаб. ливневой снег  10/10 600 м кучево-дожд. 
[Cb cap]
-12.8 -15.4 81 -16  1017.3  1.6  763  324  -16.4    0.4  43  очень
неравномерный
сухой снег
(сугробы, заносы) 
00 19.01.18 350 (С) 3-5{10}  20000 м  {ливн. осадки}  3/3 600 м кучево-дожд. 
[Cb cap]
-14 -17.8 73 -18  1019.2  1.8  764  326           
03 19.01.18 240 (ЮЗ) 6-10{11}  10 км  слаб. ливневой снег  9/9 600 м кучево-дожд. 
[Cb cap]
-13 -15.1 84 -19  1018.9  -0.4  764  324           
06 19.01.18 360 (С) 2-4{10}  20000 м  в посл. час ливневой снег  8/8 600 м кучево-дожд. 
[Cb cap]
-13.5 -15.7 83 -16  1018.9  764  325           
09 19.01.18 110 (В) 3-4{05}  10 км  слаб. ливневой снег  10/10 600 м кучево-дожд. 
[Cb cap]
-15.1 -17 85 -19  1019.9  764  327    -12.5  0.2     
12 19.01.18 100 (В) 4-5{05}  н/о    н/о 
-19.5 -21.4 85 -25  1020.3  0.4  765  334           
15 19.01.18 100 (В) 4-7{08}  н/о    н/о 
-21 -23.9 77 -27  1019.9  -0.5  764  335           
18 19.01.18 120 (ЮВ) 6-9{09}  н/о    н/о 
-21.4 -24.3 77 -29  1019.4  -0.5  764  336           
21 19.01.18 120 (ЮВ) 6-8{09}  20000 м    1/0 средняя 
[Ac lent]
-22.9 -26.1 75 -31  1018.6  -0.8  763  338  -22.9    0.0  39  очень
неравномерный
сухой снег
(сугробы, заносы) 
00 20.01.18 120 (ЮВ) 5-8{09}  20000 м    4/1 600 м верхняя 
[Sc diur, vesp|Ci fib]
-22.4 -25.9 73 -29  1017.7  -0.9  763  337  -23.5         
03 20.01.18 130 (ЮВ) 2-3{08}  20000 м    10/0 верхняя 
[Ci sp]
-14.8 -19.9 65 -17  1015.3  -2.4  761  326           
06 20.01.18 060 (СВ) 1-1{04}  20000 м    10/3 600 м верхняя 
[Cu hum|Ci sp]
-13.3 -17.3 72 -13  1014.3  -1  760  323           
09 20.01.18 100 (В) 4-5{05}  20000 м  в посл. час ливневой снег  3/1 600 м кучево-дожд., верхняя 
[Cb cap|Ci sp]
-16.9 -19 84 -22  1013.7  -0.7  760  328    -11.5  0.2     
12 20.01.18 100 (В) 5-7{07}  н/о    н/о 
-19 -21.4 81 -25  1012.5  -1.1  759  330           
15 20.01.18 120 (ЮВ) 5-6{08}  н/о    н/о 
-21.1 -23.6 80 -28  1011.8  -1.1  758  333           
18 20.01.18 110 (В) 3-5{07}  н/о    н/о 
-20.1 -22.7 80 -24  1009.6  -2.2  757  331           
21 20.01.18 110 (В) 4-6{07}  20000 м    10/6 600 м кучево-дожд., верхняя 
[Cb cap|Ci fib]
-19.3 -21.5 83 -25  1007.7  -1.8  755  329  -21.4      38  очень
неравномерный
сухой снег
(сугробы, заносы) 
00 21.01.18 100 (В) 3-4{06}  10 км  слаб. ливневой снег  10/10 600 м кучево-дожд. 
[Cb cap]
-18.5 -20.6 83 -23  1007.3  -0.4  755  328           
03 21.01.18 320 (СЗ) 6-9{09}  10 км  слаб. ливневой снег  9/9 600 м кучево-дожд. 
[Cb cap]
-14.4 -16.1 87 -21  1006.4  -0.9  754  322           
06 21.01.18 310 (СЗ) 6-9{11}  20000 м  позёмок{ливн. осадки}  10/8 600 м кучево-дожд., средняя 
[Cb cap|Ac As]
-14.5 -17 81 -21  1007.1  0.7  755  323           
09 21.01.18 360 (С) 4-8{10}  10 км  слаб. ливневой снег  10/10 600 м кучево-дожд. 
[Cb cap]
-16.1 -18.1 85 -21  1008.8  0.7  756  325    -14.2  0.4     
12 21.01.18 300 (СЗ) 4-7{16}  н/о    н/о 
-16 -18 85 -21  1009.7  0.9  757  325           
15 21.01.18 320 (СЗ) 7-12{12}  н/о    н/о 
-15.3 -17.3 85 -22  1010.3  0.6  757  325           
18 21.01.18 250 (З) 6-9{14}  н/о    н/о 
-15.7 -18.1 82 -22  1011.3  758  326           
Время (UTC), дата Ветер
(°,м/с) 
Видим.   Явления Облачность Т
(°С)
Тd
(°С)
f(%) Тe
(°С)
Pmin
(гПа)
dP
(гПа)
Po
(мм)
O2
(г/м3)
Тmin Tmax R s Состояние
почвы

Для получения пояснительной информации подведите курсор к названию столбца.

ПОГОДА Пильво - архив

Всё, что Вы хотите узнать о погоде Пильво - удобно и подробно!

Выберите нужную дату (начиная с 1 января 2015* года) и нажмите кнопку "Найти".
Будут отображены архивные сводки погоды по пункту Пильво, начиная с указанной даты.


Отображать данные в формате CSV (для использования в таблицах Excel)


Внимание! Наш архив погоды предназначен исключительно для личного некоммерческого использования в познавательных целях. Если Вам необходимы официальные справки о состоянии погоды (для производственных, юридических, коммерческих и т.п. целей), обращайтесь в органы Росгидромета.

*Примечание: данная дата относится к архиву по метеостанциям СССР (Россия, СНГ, Балтия).
Архив по метеостанциям Зарубежной Европы и Азии (кроме Китая) хранится 10 дней, по другим регионам земного шара (Китай, Африка, Америка, Австралия, Океания) - 1 день.

Пильво - район местоположения метеостанции


Название, широта, долгота, высота метеостанции:
Пильво 50.1°ш. 142.2°д. 4 м над ур. моря [Российская Федерация]

Дополнительная информация

В oтличие oт бoльшинства пoгoдных сайтoв мы публикуем пoдрoбную метеoинфoрмацию в детальнoм прoфессиoнальнoм фoрмате.

Характеристики температуры и влажнoсти вoздуха измеряются на высoте 2 м в тени вдали oт зданий и деревьев.
Скoрoсть ветра измеряется на высoте 10 м (на урoвне рoста челoвека скoрoсть ветра ниже в 1.5-2 раза). Если метеoстанция нахoдится в гoрoде или в лесу, тo скoрoсть ветра занижена на 2-4 м/с пo сравнению с oткрытым местoм. Скoрoсть ветра над акватoриями крупных рек и oзёр, а также на вершинах хoлмoв на 2-5 м/с выше, чем в oбычных услoвиях.
Атмoсфернoе давление в разных тoчках местнoсти мoжет значительнo oтличаться oт давления на метеoстанции, в зависимoсти oт услoвий рельефа (при пoдъёме на 10 м давление пoнижается примернo на 1 мм рт.ст.).